QPF
0.01 0.01 0.01 0.01 0.01 0.01 0.02 0.02 0.02 0.02 0.01 0.01 0.00 0.01 0.03 0.02 0.02 0.03 0.05 0.07 0.08 0.09 0.08 0.09 0.09 0.10 0.08 0.06 0.08 0.05 0.04 0.03 0.03 0.04 0.04 0.06 0.12 0.14 0.12 0.10 0.09 0.09 0.07
0.01 0.01 0.01 0.01 0.00 0.01 0.01 0.02 0.01 0.01 0.01 0.01 0.01 0.01 0.01 0.01 0.01 0.01 0.02 0.03 0.04 0.06 0.07 0.12 0.10 0.08 0.07 0.05 0.05 0.04 0.04 0.03 0.04 0.04 0.04 0.06 0.12 0.15 0.13 0.10 0.09 0.09 0.06
0.01 0.01 0.01 0.01 0.01 0.01 0.01 0.00 0.00 0.01 0.01 0.01 0.02 0.01 0.01 0.01 0.01 0.00 0.00 0.01 0.01 0.03 0.05 0.07 0.09 0.08 0.09 0.07 0.04 0.03 0.04 0.04 0.04 0.05 0.05 0.07 0.13 0.15 0.14 0.10 0.07 0.06 0.05
0.00 0.00 0.01 0.01 0.01 0.01 0.01 0.01 0.01 0.01 0.02 0.02 0.02 0.01 0.01 0.01 0.01 0.01 0.01 0.01 0.01 0.02 0.04 0.04 0.05 0.05 0.07 0.06 0.05 0.04 0.05 0.06 0.04 0.05 0.06 0.09 0.14 0.16 0.16 0.13 0.09 0.08 0.06
0.00 0.00 0.01 0.01 0.01 0.01 0.01 0.01 0.01 0.02 0.03 0.03 0.02 0.02 0.01 0.01 0.01 0.01 0.01 0.01 0.01 0.02 0.02 0.02 0.02 0.03 0.05 0.06 0.06 0.05 0.07 0.09 0.06 0.06 0.08 0.10 0.13 0.17 0.16 0.12 0.11 0.08 0.06
0.00 0.01 0.01 0.01 0.01 0.01 0.02 0.02 0.02 0.02 0.03 0.04 0.02 0.01 0.01 0.01 0.01 0.01 0.01 0.01 0.02 0.02 0.02 0.02 0.02 0.02 0.04 0.07 0.06 0.06 0.08 0.08 0.08 0.09 0.10 0.09 0.12 0.16 0.15 0.12 0.10 0.08 0.05
0.01 0.01 0.01 0.01 0.01 0.01 0.01 0.02 0.02 0.01 0.01 0.02 0.02 0.01 0.01 0.00 0.01 0.01 0.01 0.01 0.02 0.02 0.02 0.03 0.02 0.03 0.04 0.05 0.07 0.07 0.09 0.10 0.12 0.12 0.10 0.11 0.12 0.15 0.16 0.10 0.08 0.07 0.05
0.01 0.01 0.01 0.01 0.01 0.01 0.01 0.01 0.02 0.02 0.01 0.01 0.02 0.01 0.01 0.01 0.01 0.01 0.01 0.01 0.02 0.02 0.03 0.03 0.04 0.04 0.05 0.06 0.09 0.11 0.14 0.14 0.13 0.14 0.15 0.14 0.13 0.13 0.12 0.08 0.07 0.06 0.05
0.01 0.01 0.01 0.01 0.01 0.01 0.02 0.01 0.02 0.03 0.03 0.02 0.01 0.01 0.02 0.02 0.02 0.01 0.01 0.01 0.01 0.02 0.03 0.04 0.05 0.05 0.05 0.05 0.07 0.09 0.13 0.13 0.13 0.14 0.15 0.15 0.12 0.10 0.09 0.08 0.08 0.07 0.07
0.01 0.01 0.01 0.01 0.02 0.02 0.02 0.02 0.02 0.02 0.03 0.02 0.01 0.01 0.01 0.01 0.02 0.01 0.01 0.01 0.01 0.02 0.03 0.03 0.05 0.05 0.04 0.04 0.05 0.06 0.09 0.10 0.11 0.12 0.15 0.14 0.12 0.10 0.08 0.08 0.08 0.07 0.07
0.01 0.01 0.01 0.01 0.01 0.02 0.02 0.03 0.02 0.03 0.03 0.02 0.01 0.01 0.00 0.01 0.01 0.02 0.02 0.01 0.02 0.03 0.03 0.03 0.05 0.05 0.05 0.05 0.05 0.05 0.05 0.07 0.07 0.09 0.10 0.11 0.12 0.10 0.07 0.06 0.06 0.05 0.05
0.01 0.01 0.01 0.01 0.01 0.02 0.02 0.02 0.02 0.03 0.03 0.03 0.02 0.01 0.01 0.01 0.02 0.02 0.02 0.03 0.03 0.04 0.04 0.04 0.04 0.04 0.03 0.04 0.04 0.03 0.03 0.03 0.04 0.04 0.05 0.06 0.08 0.08 0.07 0.05 0.04 0.04 0.03
0.02 0.01 0.01 0.01 0.01 0.02 0.01 0.02 0.02 0.02 0.02 0.03 0.03 0.02 0.01 0.01 0.01 0.01 0.02 0.04 0.04 0.04 0.05 0.05 0.05 0.04 0.03 0.02 0.03 0.02 0.02 0.02 0.02 0.02 0.02 0.03 0.04 0.05 0.05 0.05 0.04 0.03 0.03
0.02 0.02 0.01 0.01 0.01 0.01 0.01 0.01 0.02 0.02 0.01 0.02 0.02 0.02 0.02 0.01 0.01 0.01 0.02 0.04 0.06 0.05 0.05 0.05 0.05 0.05 0.04 0.03 0.02 0.02 0.02 0.02 0.02 0.02 0.02 0.02 0.03 0.03 0.03 0.04 0.05 0.04 0.03
0.02 0.01 0.01 0.01 0.01 0.01 0.01 0.01 0.01 0.01 0.01 0.02 0.02 0.02 0.02 0.02 0.01 0.01 0.01 0.02 0.04 0.06 0.05 0.05 0.05 0.04 0.03 0.03 0.03 0.02 0.02 0.02 0.02 0.02 0.02 0.02 0.02 0.02 0.03 0.04 0.04 0.03 0.02
0.01 0.01 0.01 0.02 0.01 0.01 0.01 0.01 0.01 0.00 0.00 0.01 0.01 0.01 0.02 0.02 0.02 0.01 0.01 0.01 0.03 0.05 0.06 0.05 0.04 0.03 0.02 0.02 0.03 0.02 0.02 0.02 0.03 0.03 0.02 0.02 0.02 0.03 0.03 0.03 0.02 0.02 0.02
0.02 0.01 0.01 0.01 0.02 0.02 0.01 0.01 0.01 0.00 0.00 0.00 0.00 0.01 0.01 0.02 0.02 0.01 0.01 0.02 0.04 0.04 0.04 0.04 0.03 0.02 0.01 0.01 0.02 0.02 0.01 0.03 0.06 0.04 0.02 0.01 0.02 0.02 0.03 0.03 0.03 0.02 0.01
0.02 0.01 0.01 0.02 0.02 0.02 0.02 0.02 0.01 0.01 0.00 0.00 0.00 0.01 0.01 0.02 0.01 0.01 0.01 0.01 0.01 0.02 0.03 0.03 0.02 0.02 0.01 0.01 0.01 0.01 0.02 0.04 0.05 0.04 0.02 0.01 0.01 0.01 0.01 0.01 0.02 0.02 0.02
0.03 0.03 0.02 0.02 0.03 0.03 0.03 0.04 0.03 0.02 0.01 0.01 0.01 0.01 0.02 0.02 0.01 0.01 0.01 0.01 0.01 0.01 0.03 0.03 0.02 0.02 0.02 0.01 0.01 0.01 0.01 0.02 0.03 0.03 0.02 0.02 0.01 0.01 0.00 0.01 0.01 0.01 0.01
0.03 0.03 0.03 0.02 0.03 0.04 0.05 0.06 0.07 0.06 0.04 0.03 0.02 0.02 0.01 0.01 0.01 0.01 0.01 0.01 0.01 0.01 0.02 0.02 0.02 0.01 0.01 0.01 0.02 0.01 0.01 0.01 0.01 0.02 0.02 0.01 0.01 0.00 0.00 0.00 0.00 0.00 0.00
0.02 0.02 0.03 0.03 0.05 0.06 0.06 0.07 0.08 0.07 0.06 0.05 0.04 0.03 0.02 0.02 0.01 0.01 0.01 0.01 0.02 0.02 0.02 0.02 0.02 0.02 0.01 0.01 0.01 0.01 0.01 0.01 0.01 0.01 0.01 0.01 0.01 0.00 0.00 0.00 0.00 0.01 0.01
0.02 0.02 0.02 0.03 0.05 0.06 0.06 0.07 0.07 0.06 0.05 0.04 0.03 0.02 0.02 0.02 0.02 0.01 0.01 0.01 0.01 0.02 0.03 0.02 0.02 0.02 0.01 0.01 0.01 0.01 0.01 0.01 0.01 0.01 0.01 0.01 0.00 0.00 0.00 0.00 0.00 0.00 0.01
0.01 0.02 0.02 0.02 0.04 0.06 0.06 0.07 0.07 0.06 0.04 0.03 0.02 0.02 0.02 0.02 0.02 0.01 0.01 0.01 0.01 0.01 0.03 0.03 0.02 0.01 0.01 0.00 0.00 0.00 0.00 0.00 0.00 0.00 0.01 0.01 0.01 0.01 0.00 0.00 0.00 0.00 0.01
0.02 0.02 0.02 0.02 0.03 0.04 0.05 0.05 0.06 0.06 0.05 0.05 0.04 0.03 0.02 0.01 0.01 0.01 0.01 0.01 0.01 0.01 0.02 0.03 0.02 0.02 0.01 0.01 0.00 0.00 0.01 0.01 0.00 0.00 0.01 0.01 0.01 0.01 0.00 0.00 0.00 0.01 0.01
0.01 0.01 0.01 0.02 0.03 0.04 0.04 0.04 0.04 0.05 0.05 0.04 0.04 0.03 0.03 0.02 0.02 0.02 0.01 0.01 0.01 0.01 0.01 0.02 0.03 0.02 0.02 0.01 0.01 0.01 0.01 0.01 0.01 0.01 0.01 0.01 0.01 0.01 0.00 0.00 0.01 0.01 0.01
0.01 0.00 0.01 0.01 0.01 0.02 0.03 0.03 0.04 0.04 0.05 0.04 0.04 0.04 0.04 0.03 0.03 0.03 0.02 0.01 0.01 0.01 0.01 0.02 0.03 0.02 0.02 0.01 0.01 0.01 0.01 0.01 0.01 0.01 0.01 0.02 0.02 0.01 0.01 0.00 0.01 0.02 0.02
MSLP
1014.67 1014.81 1014.95 1015.08 1015.22 1015.38 1015.55 1015.73 1015.92 1016.09 1016.23 1016.34 1016.41 1016.46 1016.51 1016.56 1016.64 1016.76 1016.90 1017.06 1017.21 1017.35 1017.45 1017.53 1017.58 1017.62 1017.67 1017.74 1017.84 1017.95 1018.07 1018.18 1018.25 1018.29 1018.29 1018.26 1018.22 1018.18 1018.16 1018.15 1018.15 1018.15 1018.12
1014.62 1014.78 1014.94 1015.10 1015.27 1015.46 1015.65 1015.86 1016.07 1016.27 1016.44 1016.58 1016.69 1016.78 1016.86 1016.95 1017.05 1017.17 1017.32 1017.46 1017.61 1017.73 1017.83 1017.91 1017.98 1018.04 1018.12 1018.21 1018.31 1018.43 1018.53 1018.62 1018.67 1018.69 1018.67 1018.63 1018.58 1018.54 1018.51 1018.49 1018.48 1018.46 1018.42
1014.51 1014.71 1014.91 1015.12 1015.33 1015.56 1015.79 1016.03 1016.26 1016.48 1016.67 1016.84 1016.98 1017.10 1017.21 1017.32 1017.44 1017.56 1017.70 1017.83 1017.96 1018.07 1018.17 1018.27 1018.35 1018.44 1018.54 1018.65 1018.77 1018.88 1018.97 1019.03 1019.06 1019.04 1019.00 1018.95 1018.89 1018.84 1018.80 1018.78 1018.75 1018.71 1018.64
1014.37 1014.61 1014.87 1015.13 1015.40 1015.67 1015.94 1016.20 1016.46 1016.69 1016.91 1017.09 1017.26 1017.40 1017.53 1017.65 1017.77 1017.89 1018.01 1018.13 1018.24 1018.35 1018.46 1018.56 1018.67 1018.79 1018.92 1019.05 1019.17 1019.27 1019.35 1019.38 1019.38 1019.34 1019.27 1019.20 1019.12 1019.07 1019.02 1018.98 1018.94 1018.88 1018.79
1014.23 1014.51 1014.81 1015.13 1015.45 1015.76 1016.07 1016.36 1016.63 1016.88 1017.11 1017.31 1017.49 1017.65 1017.79 1017.92 1018.04 1018.15 1018.25 1018.35 1018.45 1018.55 1018.66 1018.78 1018.92 1019.06 1019.21 1019.36 1019.49 1019.59 1019.64 1019.66 1019.62 1019.55 1019.46 1019.37 1019.28 1019.21 1019.15 1019.11 1019.05 1018.98 1018.87
1014.09 1014.40 1014.75 1015.11 1015.47 1015.82 1016.15 1016.47 1016.75 1017.01 1017.25 1017.46 1017.65 1017.82 1017.97 1018.10 1018.22 1018.32 1018.40 1018.49 1018.58 1018.68 1018.79 1018.92 1019.08 1019.25 1019.42 1019.58 1019.71 1019.80 1019.84 1019.84 1019.78 1019.69 1019.58 1019.47 1019.37 1019.29 1019.22 1019.16 1019.09 1019.00 1018.88
1013.96 1014.30 1014.66 1015.05 1015.44 1015.81 1016.16 1016.49 1016.78 1017.05 1017.30 1017.52 1017.72 1017.91 1018.06 1018.20 1018.31 1018.40 1018.48 1018.55 1018.63 1018.72 1018.84 1018.98 1019.15 1019.33 1019.51 1019.68 1019.82 1019.91 1019.94 1019.92 1019.86 1019.76 1019.64 1019.52 1019.41 1019.32 1019.24 1019.17 1019.09 1018.99 1018.86
1013.83 1014.17 1014.54 1014.93 1015.33 1015.71 1016.07 1016.40 1016.70 1016.98 1017.24 1017.48 1017.69 1017.89 1018.06 1018.20 1018.32 1018.41 1018.48 1018.55 1018.62 1018.71 1018.82 1018.96 1019.13 1019.32 1019.50 1019.68 1019.81 1019.91 1019.95 1019.93 1019.87 1019.77 1019.65 1019.54 1019.43 1019.33 1019.24 1019.16 1019.07 1018.96 1018.83
1013.66 1013.98 1014.35 1014.73 1015.12 1015.50 1015.86 1016.19 1016.50 1016.79 1017.06 1017.31 1017.55 1017.76 1017.95 1018.11 1018.24 1018.33 1018.41 1018.47 1018.54 1018.62 1018.73 1018.86 1019.02 1019.20 1019.39 1019.56 1019.71 1019.81 1019.87 1019.87 1019.83 1019.75 1019.66 1019.55 1019.45 1019.35 1019.25 1019.16 1019.06 1018.94 1018.80
1013.39 1013.70 1014.05 1014.42 1014.80 1015.17 1015.53 1015.86 1016.18 1016.48 1016.77 1017.04 1017.30 1017.53 1017.74 1017.92 1018.06 1018.17 1018.26 1018.33 1018.40 1018.48 1018.57 1018.70 1018.84 1019.01 1019.19 1019.36 1019.52 1019.64 1019.72 1019.76 1019.76 1019.72 1019.66 1019.58 1019.49 1019.39 1019.29 1019.18 1019.06 1018.93 1018.78
1013.00 1013.30 1013.64 1014.00 1014.36 1014.73 1015.09 1015.44 1015.76 1016.08 1016.38 1016.67 1016.95 1017.20 1017.43 1017.63 1017.80 1017.93 1018.03 1018.12 1018.19 1018.27 1018.36 1018.47 1018.61 1018.76 1018.93 1019.10 1019.27 1019.42 1019.54 1019.62 1019.68 1019.69 1019.68 1019.63 1019.56 1019.47 1019.36 1019.23 1019.09 1018.93 1018.76
1012.48 1012.78 1013.11 1013.46 1013.83 1014.20 1014.57 1014.93 1015.28 1015.61 1015.92 1016.22 1016.51 1016.78 1017.03 1017.25 1017.44 1017.59 1017.72 1017.83 1017.92 1018.01 1018.11 1018.21 1018.34 1018.48 1018.64 1018.82 1019.00 1019.17 1019.34 1019.48 1019.60 1019.68 1019.72 1019.71 1019.67 1019.58 1019.46 1019.31 1019.14 1018.95 1018.75
1011.86 1012.15 1012.48 1012.85 1013.23 1013.62 1014.01 1014.38 1014.74 1015.09 1015.41 1015.72 1016.01 1016.29 1016.54 1016.78 1016.99 1017.18 1017.34 1017.48 1017.60 1017.71 1017.82 1017.93 1018.05 1018.19 1018.36 1018.54 1018.74 1018.95 1019.16 1019.36 1019.54 1019.68 1019.77 1019.81 1019.79 1019.72 1019.59 1019.41 1019.20 1018.98 1018.74
1011.16 1011.46 1011.80 1012.18 1012.59 1013.00 1013.42 1013.82 1014.20 1014.55 1014.88 1015.18 1015.47 1015.74 1016.00 1016.24 1016.48 1016.69 1016.89 1017.07 1017.23 1017.38 1017.52 1017.65 1017.78 1017.93 1018.10 1018.30 1018.52 1018.76 1019.01 1019.26 1019.50 1019.69 1019.84 1019.92 1019.93 1019.86 1019.72 1019.53 1019.29 1019.03 1018.76
1010.44 1010.74 1011.10 1011.50 1011.93 1012.38 1012.82 1013.25 1013.64 1014.00 1014.32 1014.62 1014.89 1015.15 1015.41 1015.66 1015.91 1016.16 1016.40 1016.62 1016.84 1017.03 1017.21 1017.38 1017.54 1017.71 1017.90 1018.11 1018.35 1018.61 1018.90 1019.19 1019.47 1019.71 1019.90 1020.01 1020.05 1019.99 1019.86 1019.66 1019.40 1019.12 1018.81
1009.76 1010.05 1010.41 1010.83 1011.28 1011.76 1012.22 1012.67 1013.07 1013.43 1013.75 1014.03 1014.29 1014.54 1014.79 1015.05 1015.31 1015.59 1015.87 1016.15 1016.42 1016.67 1016.90 1017.12 1017.32 1017.52 1017.74 1017.97 1018.23 1018.51 1018.82 1019.13 1019.44 1019.71 1019.93 1020.07 1020.13 1020.09 1019.97 1019.78 1019.52 1019.23 1018.91
1009.16 1009.42 1009.76 1010.17 1010.63 1011.11 1011.59 1012.04 1012.46 1012.82 1013.14 1013.41 1013.66 1013.90 1014.15 1014.40 1014.69 1014.99 1015.31 1015.64 1015.96 1016.27 1016.56 1016.84 1017.09 1017.34 1017.58 1017.84 1018.12 1018.42 1018.73 1019.06 1019.37 1019.66 1019.89 1020.05 1020.14 1020.13 1020.04 1019.87 1019.64 1019.37 1019.06
1008.63 1008.83 1009.13 1009.51 1009.95 1010.42 1010.89 1011.34 1011.76 1012.13 1012.44 1012.72 1012.98 1013.22 1013.47 1013.74 1014.03 1014.36 1014.71 1015.08 1015.45 1015.82 1016.17 1016.50 1016.81 1017.11 1017.39 1017.68 1017.98 1018.29 1018.61 1018.93 1019.24 1019.52 1019.76 1019.95 1020.05 1020.08 1020.04 1019.92 1019.74 1019.51 1019.24
1008.17 1008.28 1008.51 1008.82 1009.21 1009.64 1010.08 1010.52 1010.94 1011.31 1011.64 1011.94 1012.21 1012.48 1012.74 1013.03 1013.34 1013.69 1014.06 1014.46 1014.86 1015.27 1015.68 1016.06 1016.43 1016.78 1017.11 1017.43 1017.75 1018.07 1018.39 1018.71 1019.01 1019.29 1019.53 1019.73 1019.86 1019.94 1019.96 1019.90 1019.79 1019.63 1019.41
1007.76 1007.76 1007.87 1008.09 1008.39 1008.75 1009.14 1009.56 1009.96 1010.35 1010.70 1011.04 1011.35 1011.65 1011.95 1012.27 1012.60 1012.96 1013.34 1013.75 1014.18 1014.61 1015.05 1015.48 1015.90 1016.30 1016.69 1017.05 1017.40 1017.74 1018.07 1018.38 1018.67 1018.94 1019.19 1019.40 1019.57 1019.70 1019.78 1019.81 1019.78 1019.70 1019.56
1007.36 1007.23 1007.21 1007.30 1007.48 1007.74 1008.07 1008.44 1008.83 1009.23 1009.62 1010.01 1010.38 1010.74 1011.09 1011.44 1011.80 1012.17 1012.55 1012.96 1013.39 1013.84 1014.30 1014.76 1015.23 1015.68 1016.12 1016.53 1016.92 1017.29 1017.63 1017.94 1018.23 1018.51 1018.76 1018.99 1019.20 1019.39 1019.54 1019.65 1019.71 1019.72 1019.66
1006.98 1006.70 1006.53 1006.47 1006.51 1006.65 1006.88 1007.19 1007.56 1007.97 1008.41 1008.86 1009.30 1009.74 1010.15 1010.55 1010.94 1011.32 1011.71 1012.11 1012.53 1012.97 1013.44 1013.92 1014.43 1014.93 1015.42 1015.89 1016.32 1016.73 1017.10 1017.43 1017.73 1018.02 1018.28 1018.54 1018.79 1019.03 1019.25 1019.45 1019.60 1019.69 1019.71
1006.62 1006.19 1005.86 1005.63 1005.51 1005.51 1005.64 1005.87 1006.20 1006.62 1007.10 1007.62 1008.15 1008.67 1009.16 1009.62 1010.05 1010.45 1010.84 1011.22 1011.63 1012.06 1012.52 1013.02 1013.55 1014.10 1014.64 1015.17 1015.67 1016.12 1016.53 1016.90 1017.23 1017.53 1017.82 1018.11 1018.40 1018.69 1018.98 1019.24 1019.47 1019.63 1019.72
1006.29 1005.72 1005.23 1004.83 1004.54 1004.39 1004.39 1004.53 1004.82 1005.23 1005.74 1006.32 1006.93 1007.54 1008.12 1008.65 1009.13 1009.56 1009.96 1010.34 1010.73 1011.15 1011.61 1012.12 1012.68 1013.27 1013.86 1014.45 1015.01 1015.52 1015.98 1016.40 1016.76 1017.10 1017.43 1017.75 1018.08 1018.41 1018.75 1019.07 1019.35 1019.57 1019.72
1006.01 1005.32 1004.68 1004.11 1003.66 1003.35 1003.20 1003.24 1003.46 1003.85 1004.38 1005.00 1005.69 1006.38 1007.05 1007.66 1008.21 1008.68 1009.10 1009.49 1009.88 1010.30 1010.77 1011.29 1011.87 1012.49 1013.14 1013.79 1014.41 1014.98 1015.50 1015.97 1016.38 1016.76 1017.13 1017.48 1017.85 1018.22 1018.59 1018.95 1019.27 1019.52 1019.70
1005.80 1005.01 1004.23 1003.51 1002.89 1002.42 1002.13 1002.04 1002.17 1002.51 1003.03 1003.68 1004.42 1005.19 1005.94 1006.64 1007.25 1007.79 1008.25 1008.68 1009.09 1009.52 1010.00 1010.54 1011.15 1011.81 1012.51 1013.21 1013.89 1014.53 1015.11 1015.63 1016.10 1016.52 1016.93 1017.32 1017.72 1018.12 1018.52 1018.89 1019.23 1019.50 1019.70
Thickness
5719 5719 5718 5716 5717 5717 5717 5717 5718 5718 5719 5719 5719 5720 5719 5719 5718 5718 5715 5713 5714 5715 5715 5715 5716 5716 5717 5717 5717 5718 5718 5719 5719 5719 5719 5719 5719 5718 5718 5718 5718 5718 5718
5715 5715 5715 5713 5713 5712 5712 5712 5713 5712 5713 5712 5713 5712 5713 5713 5712 5712 5711 5709 5708 5709 5709 5710 5710 5711 5711 5712 5712 5712 5713 5713 5713 5714 5714 5714 5714 5713 5713 5713 5713 5713 5713
5711 5711 5710 5709 5709 5708 5708 5708 5708 5708 5707 5707 5707 5706 5706 5706 5706 5706 5706 5706 5705 5704 5703 5704 5704 5705 5706 5707 5707 5707 5708 5708 5708 5708 5708 5709 5709 5708 5708 5709 5709 5708 5709
5707 5706 5705 5704 5703 5703 5703 5703 5703 5702 5702 5701 5701 5701 5700 5699 5700 5700 5701 5701 5700 5700 5699 5698 5698 5699 5700 5701 5702 5702 5702 5702 5702 5702 5703 5703 5703 5703 5703 5703 5703 5703 5704
5702 5701 5700 5699 5698 5698 5697 5697 5697 5696 5695 5694 5695 5694 5694 5694 5694 5695 5696 5696 5695 5695 5695 5693 5693 5694 5695 5696 5696 5697 5697 5697 5697 5697 5697 5697 5698 5698 5698 5698 5698 5698 5699
5697 5696 5695 5694 5694 5693 5691 5691 5689 5688 5688 5688 5690 5689 5689 5689 5689 5689 5690 5690 5690 5690 5690 5690 5690 5689 5689 5690 5690 5691 5691 5691 5691 5691 5691 5692 5692 5692 5692 5692 5692 5693 5693
5692 5691 5690 5690 5688 5688 5686 5685 5684 5683 5682 5683 5683 5683 5684 5684 5684 5683 5683 5684 5684 5684 5684 5684 5685 5685 5686 5684 5684 5684 5684 5684 5685 5685 5685 5685 5686 5686 5686 5687 5686 5687 5687
5687 5687 5686 5685 5683 5682 5681 5680 5678 5677 5677 5676 5678 5677 5677 5677 5677 5677 5677 5677 5678 5678 5679 5679 5679 5679 5680 5680 5678 5677 5677 5678 5679 5680 5680 5679 5679 5680 5680 5680 5680 5681 5681
5682 5682 5681 5680 5679 5678 5676 5674 5673 5671 5671 5671 5672 5672 5672 5671 5671 5671 5671 5671 5671 5672 5673 5673 5673 5673 5674 5673 5673 5671 5671 5671 5672 5673 5673 5673 5673 5673 5673 5673 5674 5675 5675
5677 5676 5676 5675 5674 5673 5672 5671 5669 5668 5666 5666 5666 5666 5668 5668 5665 5665 5666 5666 5665 5666 5666 5667 5667 5667 5667 5667 5665 5664 5664 5665 5666 5666 5666 5667 5666 5667 5667 5667 5668 5668 5669
5673 5672 5671 5670 5670 5669 5667 5666 5664 5664 5663 5662 5661 5661 5661 5660 5663 5662 5660 5660 5660 5660 5660 5660 5661 5661 5660 5660 5660 5659 5658 5658 5659 5660 5660 5661 5661 5661 5661 5661 5661 5662 5662
5669 5667 5666 5665 5665 5664 5663 5661 5660 5659 5658 5657 5657 5657 5656 5656 5656 5657 5656 5655 5654 5654 5654 5654 5654 5654 5653 5654 5653 5652 5652 5652 5653 5654 5654 5655 5656 5655 5655 5655 5655 5655 5655
5665 5664 5662 5661 5661 5660 5658 5657 5656 5655 5654 5653 5653 5653 5652 5653 5653 5653 5653 5651 5650 5649 5649 5649 5648 5647 5647 5647 5646 5645 5646 5646 5646 5647 5648 5649 5649 5649 5649 5649 5649 5649 5648
5663 5661 5659 5658 5656 5655 5654 5653 5652 5651 5650 5650 5649 5648 5647 5648 5648 5648 5647 5646 5645 5645 5644 5644 5643 5642 5641 5641 5640 5640 5640 5640 5640 5640 5641 5642 5642 5642 5642 5642 5641 5642 5642
5659 5657 5655 5653 5652 5651 5650 5649 5647 5647 5646 5645 5644 5643 5643 5643 5642 5642 5642 5641 5640 5640 5639 5639 5637 5636 5635 5635 5634 5635 5636 5634 5634 5634 5634 5635 5635 5635 5635 5635 5634 5634 5634
5654 5652 5650 5649 5648 5647 5645 5644 5643 5642 5642 5640 5639 5639 5638 5638 5637 5636 5635 5635 5634 5634 5633 5633 5631 5630 5629 5629 5628 5629 5629 5628 5627 5627 5627 5628 5628 5628 5628 5627 5627 5627 5627
5648 5647 5646 5644 5643 5643 5641 5640 5638 5637 5637 5637 5635 5634 5633 5632 5632 5631 5630 5629 5628 5627 5626 5626 5626 5625 5623 5623 5622 5623 5623 5622 5622 5621 5621 5621 5621 5620 5620 5620 5620 5620 5621
5643 5641 5640 5639 5639 5638 5637 5635 5634 5633 5632 5631 5631 5630 5629 5628 5626 5626 5624 5624 5623 5622 5621 5619 5619 5618 5617 5617 5616 5616 5616 5617 5616 5614 5613 5613 5613 5613 5613 5613 5613 5613 5614
5637 5636 5635 5633 5633 5633 5632 5631 5629 5628 5627 5627 5626 5625 5625 5624 5622 5621 5619 5619 5617 5616 5615 5614 5613 5612 5611 5610 5609 5609 5609 5609 5608 5607 5606 5605 5605 5605 5605 5605 5605 5606 5606
5632 5631 5630 5628 5628 5628 5627 5625 5624 5623 5622 5622 5621 5620 5620 5619 5618 5616 5615 5613 5612 5610 5609 5608 5607 5605 5604 5603 5602 5602 5602 5601 5601 5600 5599 5598 5598 5597 5598 5598 5598 5598 5599
5625 5624 5623 5623 5623 5622 5621 5620 5619 5617 5617 5617 5616 5615 5614 5613 5611 5610 5609 5608 5606 5605 5604 5602 5601 5600 5599 5597 5596 5596 5595 5595 5594 5594 5593 5592 5592 5592 5592 5591 5591 5591 5591
5619 5617 5616 5616 5616 5616 5614 5612 5611 5611 5611 5611 5610 5610 5609 5607 5604 5602 5601 5600 5599 5599 5599 5597 5596 5595 5594 5592 5591 5589 5588 5588 5587 5587 5585 5586 5586 5586 5585 5585 5584 5584 5584
5611 5610 5609 5609 5609 5609 5607 5605 5603 5604 5604 5604 5604 5603 5603 5602 5599 5598 5595 5592 5591 5590 5590 5592 5591 5590 5588 5587 5585 5583 5582 5581 5580 5579 5577 5579 5579 5579 5579 5578 5577 5577 5577
5604 5603 5602 5601 5601 5601 5599 5598 5597 5596 5597 5597 5597 5598 5597 5596 5594 5592 5591 5589 5588 5587 5584 5584 5584 5583 5582 5580 5578 5576 5575 5574 5573 5571 5570 5571 5572 5573 5573 5572 5570 5570 5570
5596 5595 5595 5594 5594 5594 5592 5591 5589 5590 5590 5591 5591 5591 5590 5589 5587 5584 5584 5584 5583 5581 5577 5575 5574 5574 5572 5570 5568 5567 5567 5566 5566 5566 5564 5565 5566 5566 5567 5566 5565 5564 5564
5589 5588 5587 5587 5587 5587 5585 5583 5581 5583 5584 5584 5584 5583 5581 5580 5579 5576 5577 5578 5577 5576 5573 5569 5567 5565 5564 5563 5561 5560 5560 5560 5560 5560 5558 5557 5559 5559 5560 5561 5560 5559 5559